Wind_Speed
27 33 36 37 37 38 39 40 41 43 42 43 44 45 41 40 41 38 35 35 34 36 38 39 39 39 39 38 35 35 35 35 36 36 36 34 33 31 30 29 26 25 25
30 32 32 35 37 38 39 40 42 43 44 44 46 50 44 43 42 41 40 39 39 38 37 38 40 40 40 39 38 37 37 35 37 37 37 39 38 34 32 31 30 28 27
29 31 31 32 34 36 36 37 38 40 41 44 46 48 49 46 46 45 44 44 44 43 42 41 39 40 41 39 39 38 39 38 37 37 39 40 41 37 35 34 32 32 30
27 28 29 30 30 31 31 33 34 34 35 37 39 41 43 44 41 42 43 43 44 44 45 45 44 42 43 43 42 44 42 41 42 39 40 41 42 39 37 36 36 36 35
20 20 21 22 22 23 24 25 25 27 28 30 34 38 41 43 44 43 40 40 42 45 47 50 51 51 50 49 49 50 47 45 44 41 42 41 43 43 41 40 39 40 40
17 17 17 18 19 19 20 22 23 23 24 26 27 30 32 33 35 37 40 42 43 43 44 45 48 52 55 54 52 49 50 49 46 46 45 43 44 46 46 43 43 41 41
14 15 16 18 20 22 23 24 26 27 29 30 31 32 34 34 34 34 35 36 40 45 49 47 45 44 44 50 54 54 54 53 50 48 48 46 45 47 48 46 47 45 43
12 13 15 18 21 23 26 28 30 32 34 35 35 35 36 37 36 36 36 36 37 38 42 44 46 47 45 45 48 53 54 52 52 53 53 52 50 48 50 49 48 57 52
14 16 19 22 24 25 27 28 29 32 35 36 38 40 40 40 40 40 40 40 39 39 39 39 40 40 43 45 48 47 47 49 51 51 50 55 54 49 50 53 56 60 53
18 20 22 24 25 26 25 25 25 25 26 27 30 32 36 39 42 43 44 44 43 42 41 40 40 40 38 39 40 44 50 50 49 48 48 51 51 50 50 53 61 49 48
19 22 24 25 26 25 25 25 22 20 20 21 22 24 26 28 31 35 40 44 45 45 44 44 45 45 44 43 42 42 43 47 50 48 47 47 47 49 49 50 45 41 43
21 23 24 24 22 21 22 21 17 15 17 18 20 21 22 21 23 26 30 32 35 39 41 44 44 44 44 45 44 43 42 41 45 47 47 47 46 45 45 44 48 40 43
21 22 22 21 17 16 15 14 13 14 16 18 19 19 20 21 23 25 31 31 29 27 31 37 39 44 44 44 47 47 51 43 41 42 44 44 44 43 42 42 42 44 44
16 18 21 21 16 14 13 12 13 14 16 18 20 21 23 23 24 25 27 27 28 27 27 23 22 27 33 40 42 48 43 44 36 36 38 39 39 40 37 44 44 49 48
15 17 19 16 15 14 11 11 12 15 17 20 20 19 21 21 20 22 22 20 20 24 26 28 28 29 28 22 23 31 25 27 30 28 31 31 31 35 40 38 44 41 36
14 16 15 12 11 11 11 11 12 15 17 18 16 13 14 12 13 19 21 20 20 21 23 24 25 23 23 24 30 33 27 29 27 25 24 30 33 43 33 38 28 29 26
15 15 16 12 11 10 11 12 14 15 16 16 13 12 16 18 17 12 11 17 15 18 20 22 20 19 15 19 17 20 18 22 22 23 24 26 28 29 25 22 19 25 30
13 15 15 16 12 10 9 11 13 14 15 13 10 12 14 10 10 10 10 13 12 9 11 15 14 15 9 14 11 6 6 12 9 12 14 14 10 11 17 22 26 31 34
12 13 15 17 11 6 9 9 10 14 14 10 7 6 8 7 9 9 10 11 8 6 8 10 8 8 6 8 6 5 4 3 3 7 11 15 17 21 24 26 29 34 37
11 13 15 15 10 5 6 7 8 11 5 5 7 4 5 5 7 10 12 13 14 12 11 11 10 9 9 8 8 7 7 9 11 14 17 20 23 26 28 32 34 36 38
10 11 12 12 5 4 7 8 9 11 9 6 9 9 10 10 10 9 9 10 11 9 9 9 8 8 8 8 8 10 12 15 18 21 24 27 30 32 34 34 33 28 24
12 9 10 9 6 5 5 6 7 8 8 7 7 7 6 5 5 6 7 7 8 7 8 8 8 9 10 12 15 18 20 24 27 29 30 31 31 29 27 24 20 17 15
12 14 10 8 6 4 3 3 3 3 3 4 3 3 2 2 3 3 4 5 6 6 7 9 10 12 15 17 19 21 24 26 27 28 27 25 23 22 19 16 13 13 13
11 13 13 7 6 5 4 4 2 1 1 1 1 1 1 1 1 3 4 5 6 7 8 10 13 16 19 21 24 27 29 30 30 28 25 23 21 19 15 13 13 13 12
11 10 12 9 8 7 7 6 5 4 4 4 3 3 3 3 3 4 5 6 7 10 12 15 17 20 23 25 27 28 30 30 29 26 23 21 19 17 15 14 13 12 12
13 8 11 12 9 7 8 7 7 7 7 6 5 5 5 5 5 6 6 8 10 12 15 18 21 23 25 27 28 28 30 30 28 25 22 20 18 15 15 15 13 13 14
Wind_Direction
245 241 242 248 251 250 250 250 249 250 248 250 255 260 258 260 264 265 264 263 265 266 266 264 263 263 264 267 264 264 264 263 262 260 261 262 264 269 272 274 275 275 273
242 246 246 249 251 254 255 254 255 255 256 256 258 264 264 263 265 264 261 262 266 264 263 266 264 264 263 264 265 266 268 266 264 265 262 260 260 265 270 271 271 270 270
243 246 247 249 252 254 258 260 261 262 263 263 263 264 272 271 270 269 267 265 264 263 262 262 265 265 264 263 267 265 265 266 264 263 263 261 262 264 266 270 268 267 267
240 244 247 249 252 256 259 262 265 267 268 267 265 265 266 270 271 269 267 265 262 260 259 259 260 261 262 260 265 268 266 263 262 262 262 262 264 266 267 266 268 267 268
235 240 245 250 254 258 261 263 264 265 265 263 263 264 266 269 272 271 269 266 265 260 256 255 258 259 258 259 260 262 263 263 262 263 263 261 262 265 268 269 267 267 267
228 234 242 250 256 261 265 267 268 270 271 270 268 267 269 270 271 272 271 269 265 263 263 257 256 256 257 259 259 259 260 262 262 262 262 263 265 268 269 268 268 267 264
227 238 247 255 261 265 267 270 272 273 272 270 269 269 270 272 273 274 276 275 271 267 265 265 262 260 259 257 258 257 258 259 260 260 264 264 266 267 266 264 262 260 261
235 247 258 264 268 271 274 274 274 273 272 274 275 275 273 272 273 275 276 277 277 274 271 269 266 266 262 261 260 259 258 259 260 262 261 263 264 266 264 262 261 262 260
258 268 276 279 279 278 277 278 278 274 272 271 271 270 271 272 274 275 275 274 272 270 268 267 269 263 263 261 258 259 260 263 262 260 260 262 261 261 265 262 269 265 266
279 283 285 286 285 283 280 282 281 277 274 271 270 269 268 268 269 269 270 271 270 269 266 264 263 265 263 263 261 260 259 260 261 262 260 261 261 261 265 268 267 268 269
294 295 294 294 290 283 277 279 278 275 275 275 273 271 270 271 273 272 271 270 271 271 270 268 267 266 264 260 259 262 263 263 262 262 262 263 264 263 263 264 269 269 279
298 297 296 296 292 281 273 272 274 280 281 279 278 278 276 277 281 286 284 279 274 272 272 271 270 269 266 262 261 263 265 269 266 263 262 262 263 265 268 275 275 274 280
302 301 299 296 289 283 276 274 279 283 286 288 290 288 287 285 288 294 294 283 276 279 288 277 274 269 265 262 261 262 263 270 273 264 264 266 267 267 271 274 269 273 278
304 305 303 295 292 288 278 273 279 287 292 294 289 285 285 287 284 285 291 287 277 275 278 285 291 287 276 267 265 263 277 252 266 263 263 263 265 267 268 269 269 282 274
310 315 313 298 285 283 270 272 282 293 299 300 296 298 293 288 288 284 290 297 293 279 274 275 283 285 283 288 271 275 268 274 271 264 262 264 266 265 260 274 276 283 285
322 326 322 312 291 285 277 285 292 298 299 296 294 295 293 297 297 299 303 293 289 283 285 288 287 286 282 281 268 265 264 262 269 255 253 260 264 281 277 279 284 286 284
328 330 333 308 294 285 279 289 295 296 299 292 287 292 300 309 304 295 306 312 293 281 286 293 290 293 279 277 263 255 251 253 250 255 263 271 284 276 284 279 285 276 276
328 333 333 336 287 281 287 296 289 294 298 299 302 295 295 320 348 332 311 326 318 300 294 288 300 313 266 296 304 227 257 262 243 284 280 269 266 274 272 271 278 279 282
328 332 345 342 329 286 290 300 308 304 293 300 308 291 329 323 353 350 347 345 349 325 299 312 316 305 318 318 322 18 28 360 296 277 277 275 277 280 280 285 286 289 290
322 355 353 334 327 341 330 329 334 332 304 279 307 318 360 37 48 62 58 55 60 60 62 66 65 62 50 43 41 8 329 309 303 297 292 292 291 291 290 288 287 288 292
340 355 352 356 28 41 41 39 48 66 65 70 92 81 86 87 79 68 61 60 62 57 54 47 38 26 13 358 343 329 317 311 306 301 297 295 294 293 293 293 296 297 297
335 339 344 351 3 33 43 52 54 58 76 81 85 93 89 77 65 62 59 51 49 42 37 31 19 3 350 340 331 325 322 317 313 308 305 303 301 301 302 304 303 301 298
320 328 321 331 334 345 354 4 39 54 58 89 94 83 75 83 70 45 33 26 24 20 13 3 351 341 335 331 327 322 319 317 317 316 316 314 311 309 307 301 296 291 287
303 311 323 317 320 306 299 301 265 221 262 245 216 211 226 326 351 359 360 357 355 349 343 339 336 333 331 330 331 331 331 330 327 325 321 317 313 308 301 294 290 290 291
287 304 306 311 329 290 280 270 262 249 250 256 244 236 261 285 315 329 331 335 335 332 333 332 332 333 333 332 331 331 331 330 328 326 321 316 311 303 296 293 291 291 292
281 280 286 307 310 297 271 258 253 253 259 260 252 257 270 287 299 308 323 327 325 326 327 328 328 330 330 330 329 329 330 330 328 323 319 314 307 297 293 291 290 293 298
Height
3108 3108 3110 3112 3113 3116 3119 3121 3124 3126 3128 3129 3129 3129 3133 3135 3135 3136 3137 3137 3137 3138 3138 3139 3139 3139 3139 3139 3141 3140 3141 3141 3140 3140 3140 3140 3140 3141 3141 3140 3141 3140 3139
3101 3102 3104 3105 3107 3109 3111 3113 3115 3116 3119 3121 3122 3120 3124 3126 3127 3128 3130 3130 3131 3131 3131 3132 3133 3132 3132 3132 3133 3134 3134 3134 3134 3135 3133 3132 3133 3134 3135 3135 3134 3134 3134
3095 3096 3098 3099 3101 3102 3104 3105 3107 3108 3110 3111 3113 3113 3112 3114 3116 3118 3120 3122 3122 3122 3122 3123 3124 3125 3124 3125 3125 3126 3126 3127 3127 3128 3127 3125 3124 3128 3128 3128 3128 3127 3127
3088 3090 3092 3094 3095 3096 3098 3099 3100 3101 3102 3103 3103 3104 3104 3104 3106 3108 3108 3109 3111 3113 3113 3114 3115 3116 3116 3116 3118 3117 3117 3117 3117 3120 3119 3118 3118 3119 3120 3121 3121 3120 3119
3084 3086 3087 3088 3090 3091 3092 3093 3093 3094 3094 3095 3095 3096 3096 3097 3097 3097 3098 3099 3100 3101 3103 3104 3104 3104 3105 3106 3108 3108 3107 3108 3108 3110 3111 3111 3110 3110 3111 3112 3113 3112 3112
3082 3084 3085 3085 3086 3086 3087 3087 3087 3087 3088 3088 3089 3089 3089 3089 3088 3088 3088 3089 3090 3090 3090 3093 3093 3093 3094 3094 3096 3098 3097 3097 3100 3099 3101 3102 3102 3103 3103 3104 3102 3104 3103
3080 3081 3081 3081 3081 3081 3082 3082 3082 3081 3081 3081 3081 3080 3081 3081 3081 3081 3080 3080 3080 3081 3081 3083 3084 3084 3084 3084 3084 3085 3086 3087 3089 3091 3090 3092 3093 3094 3093 3094 3091 3090 3091
3077 3077 3078 3077 3077 3076 3076 3076 3075 3074 3073 3072 3072 3072 3072 3072 3072 3072 3072 3071 3072 3072 3071 3071 3073 3074 3074 3074 3074 3073 3075 3076 3078 3079 3080 3080 3082 3083 3082 3082 3082 3072 3077
3074 3073 3073 3072 3072 3071 3069 3069 3068 3067 3065 3064 3064 3064 3063 3064 3064 3063 3063 3063 3062 3062 3061 3061 3060 3063 3063 3063 3064 3064 3064 3065 3067 3068 3069 3068 3070 3072 3072 3071 3070 3067 3066
3069 3068 3067 3066 3065 3063 3063 3062 3060 3059 3057 3056 3056 3055 3055 3054 3054 3054 3054 3054 3054 3054 3054 3054 3053 3052 3054 3054 3053 3053 3054 3055 3056 3057 3059 3057 3059 3062 3062 3060 3053 3052 3050
3064 3062 3060 3059 3057 3057 3056 3056 3055 3053 3052 3050 3049 3048 3047 3046 3046 3046 3044 3044 3044 3044 3044 3044 3043 3043 3044 3044 3044 3044 3044 3044 3045 3047 3047 3048 3049 3050 3051 3051 3045 3042 3046
3060 3058 3056 3053 3052 3051 3050 3050 3049 3047 3046 3045 3043 3042 3041 3040 3039 3037 3036 3034 3034 3033 3033 3033 3033 3032 3032 3033 3033 3034 3033 3034 3034 3036 3037 3038 3040 3040 3041 3041 3041 3036 3038
3055 3053 3050 3048 3047 3045 3044 3044 3043 3042 3041 3039 3038 3036 3035 3033 3032 3030 3029 3027 3025 3025 3024 3022 3022 3020 3021 3021 3022 3023 3022 3023 3024 3026 3028 3029 3030 3031 3031 3032 3031 3032 3031
3050 3048 3045 3042 3041 3040 3039 3040 3039 3038 3036 3034 3033 3030 3028 3027 3026 3025 3023 3019 3017 3017 3017 3016 3014 3012 3010 3009 3010 3011 3011 3015 3015 3017 3018 3020 3021 3022 3023 3023 3024 3021 3020
3047 3044 3040 3037 3036 3035 3036 3035 3034 3032 3031 3030 3028 3025 3024 3023 3021 3020 3018 3014 3013 3012 3011 3010 3008 3007 3006 3004 3003 3004 3005 3005 3008 3009 3010 3012 3014 3014 3012 3015 3015 3012 3011
3044 3040 3037 3034 3032 3031 3031 3031 3029 3028 3027 3026 3025 3022 3021 3017 3015 3014 3012 3010 3008 3007 3006 3004 3003 3001 3000 2998 2998 2998 2999 3001 3003 3003 3004 3006 3007 3006 3007 3007 3005 3004 3003
3041 3038 3034 3031 3029 3028 3028 3027 3026 3025 3024 3023 3020 3018 3018 3014 3010 3008 3008 3006 3003 3002 3000 2999 3000 2997 2995 2994 2993 2993 2994 2996 2998 2999 2999 2999 3000 3001 2999 3000 2998 2998 2995
3038 3035 3032 3028 3026 3025 3024 3023 3023 3021 3020 3018 3017 3015 3015 3012 3008 3006 3006 3003 2999 2998 2998 2997 2996 2995 2994 2993 2992 2989 2991 2992 2992 2995 2994 2994 2994 2993 2994 2992 2991 2990 2988
3036 3034 3028 3024 3022 3022 3022 3021 3019 3017 3015 3015 3014 3013 3012 3010 3008 3006 3005 3001 2998 2997 2997 2996 2996 2995 2994 2994 2993 2992 2992 2992 2992 2993 2993 2992 2991 2990 2989 2986 2985 2982 2978
3035 3029 3026 3025 3022 3022 3020 3018 3016 3013 3012 3014 3013 3012 3011 3009 3008 3007 3005 3004 3001 3000 2999 2999 2998 2997 2997 2997 2996 2995 2994 2994 2993 2991 2990 2988 2986 2984 2981 2979 2977 2973 2968
3031 3028 3028 3025 3022 3021 3019 3017 3015 3013 3013 3014 3013 3012 3011 3010 3009 3008 3007 3006 3004 3004 3003 3002 3001 3001 3000 2998 2997 2996 2995 2993 2991 2988 2985 2982 2978 2975 2971 2968 2964 2962 2959
3029 3029 3028 3026 3024 3021 3019 3018 3017 3016 3015 3015 3015 3014 3013 3012 3011 3010 3009 3008 3007 3006 3005 3004 3003 3002 3001 2999 2997 2995 2992 2989 2985 2981 2977 2973 2968 2964 2961 2959 2957 2956 2954
3028 3027 3026 3025 3023 3021 3021 3020 3018 3018 3017 3015 3015 3015 3015 3014 3013 3012 3010 3009 3008 3007 3006 3005 3003 3002 3000 2998 2995 2992 2989 2985 2979 2974 2969 2964 2961 2958 2956 2954 2953 2952 2951
3026 3025 3024 3022 3021 3021 3020 3020 3019 3017 3017 3016 3015 3015 3015 3014 3014 3012 3011 3010 3009 3008 3006 3004 3003 3001 2998 2994 2991 2986 2982 2977 2972 2968 2964 2960 2957 2954 2953 2951 2950 2949 2948
3023 3023 3021 3020 3019 3019 3018 3018 3018 3017 3016 3015 3014 3014 3015 3014 3013 3012 3011 3010 3008 3007 3005 3003 3001 2998 2995 2991 2987 2982 2977 2973 2968 2963 2959 2956 2953 2951 2950 2948 2947 2946 2945
3019 3019 3019 3019 3017 3017 3017 3016 3016 3015 3015 3014 3013 3013 3013 3012 3012 3010 3009 3008 3007 3006 3004 3002 2999 2996 2992 2988 2984 2979 2974 2968 2963 2959 2955 2952 2949 2948 2947 2945 2944 2943 2942